This is the latest recevied weather packets stored in our database for station/object OE3TEC-15. If no packets are shown the sender has not sent any weather packets the latest 10 day(s).
| Time | Temp. | Humidity | Pressure | Rain* | Wind** | Luminosity | Snow |
|---|---|---|---|---|---|---|---|
| 1777814371 | 25° C | 33% | 1016.9 hPa | 0 mm | - | 513 W/m² | - |
| 1777813766 | 25° C | 34% | 1016.9 hPa | 0 mm | - | 534 W/m² | - |
| 1777813158 | 25° C | 34% | 1017.1 hPa | 0 mm | - | 551 W/m² | - |
| 1777812550 | 25° C | 34% | 1017.2 hPa | 0 mm | - | 570 W/m² | - |
| 1777811943 | 25° C | 33% | 1017.2 hPa | 0 mm | - | 582 W/m² | - |
| 1777811335 | 24.44° C | 35% | 1017.4 hPa | 0 mm | - | 588 W/m² | - |
| 1777810728 | 23.89° C | 35% | 1017.6 hPa | 0 mm | - | 610 W/m² | - |
| 1777810122 | 24.44° C | 35% | 1017.8 hPa | 0 mm | - | 621 W/m² | - |
| 1777809514 | 23.89° C | 35% | 1017.9 hPa | 0 mm | - | 630 W/m² | - |
| 1777808907 | 23.89° C | 35% | 1017.9 hPa | 0 mm | - | 643 W/m² | - |
| 1777808300 | 23.89° C | 36% | 1018.1 hPa | 0 mm | - | 650 W/m² | - |
| 1777807693 | 23.33° C | 36% | 1018.4 hPa | 0 mm | - | 658 W/m² | - |
| 1777807085 | 23.33° C | 36% | 1018.5 hPa | 0 mm | - | 662 W/m² | - |
| 1777806479 | 23.33° C | 36% | 1018.5 hPa | 0 mm | - | 671 W/m² | - |
| 1777805872 | 22.78° C | 36% | 1018.6 hPa | 0 mm | - | 673 W/m² | - |
| 1777805264 | 22.78° C | 38% | 1018.9 hPa | 0 mm | - | 675 W/m² | - |
| 1777804656 | 22.78° C | 36% | 1018.7 hPa | 0 mm | - | 676 W/m² | - |
| 1777804056 | 22.78° C | 36% | 1019.1 hPa | 0 mm | - | 676 W/m² | - |
| 1777803450 | 22.22° C | 36% | 1019.1 hPa | 0 mm | - | 671 W/m² | - |
| 1777802844 | 22.78° C | 38% | 1019 hPa | 0 mm | - | 671 W/m² | - |
| 1777802237 | 22.22° C | 37% | 1019.2 hPa | 0 mm | - | 667 W/m² | - |
| 1777801631 | 21.67° C | 38% | 1019 hPa | 0 mm | - | 656 W/m² | - |
| 1777801023 | 21.67° C | 40% | 1019.3 hPa | 0 mm | - | 652 W/m² | - |
| 1777800415 | 21.11° C | 40% | 1019.3 hPa | 0 mm | - | 645 W/m² | - |
| 1777799808 | 20.56° C | 40% | 1019.2 hPa | 0 mm | - | 631 W/m² | - |
* Rain latest hour (hover to see other rain measurements)
** Current wind speed in m/s (hover to see current wind gust speed)